Weather History for KP28 - August, 2013

Change the Weather History Date:

Saturday, August 17, 2013

  Actual Average Record
Temperature  
Mean Temperature 73 °F 80 °F  
Max Temperature 81 °F 93 °F 113 °F (1909)
Min Temperature 65 °F 68 °F 53 °F (1962)
Degree Days  
Heating Degree Days 0 0  
Month to date heating degree days 0 0  
Since 1 June heating degree days 4 3  
Since 1 July heating degree days 0 0  
Cooling Degree Days 8 15  
Month to date cooling degree days 198 281  
Year to date cooling degree days 1220 1318  
Since 1 June cooling degree days 1077 1162  
Growing Degree Days 22 (Base 50)    
Moisture  
Dew Point 62 °F    
Average Humidity 74    
Maximum Humidity 93    
Minimum Humidity 54    
Precipitation  
Precipitation 0.00 in 0.11 in 2.00 in (2010)
Month to date precipitation 6.29 1.62  
Year to date precipitation 21.64 18.85  
Snow  
Snow 0.00 in 0.00 in - ()
Month to date snowfall 0.0 0.0  
Since 1 June snowfall 0.0 0.0  
Since 1 July snowfall 0.0 0.0  
Snow Depth 0.00 in    
Sea Level Pressure  
Sea Level Pressure 30.09 in    
Wind  
Wind Speed 7 mph (SE)    
Max Wind Speed 14 mph    
Max Gust Speed 19 mph    
T = Trace of Precipitation, MM = Missing Value Source: NWS Daily Summary

Daily Weather History Graph

Daily Weather History Graph

Search for Another Location

Airport or City:

Trip Planner

Search our weather history database for the weather conditions in past years. The results will help you decide how hot, cold, wet, or windy it might be!

Date:

Astronomy

Aug. 17, 2013 Rise Set
Actual Time 6:52 AM CDT 8:23 PM CDT
Civil Twilight 6:24 AM CDT 8:50 PM CDT
Nautical Twilight 5:51 AM CDT 9:23 PM CDT
Astronomical Twilight 5:16 AM CDT 9:58 PM CDT
Moon 5:38 PM CDT (8/17) 2:59 AM CDT (8/17)
Length of Visible Light 14h 25m
Length of Day
13h 30m
Waxing Gibbous, 84% of the Moon is Illuminated
Aug 17
Waxing Gibbous
Aug 20
Full
Aug 28
Last Quarter
Sep 5
New
Sep 12
First Quarter

Hourly Weather History & Observations

Time (CDT) Temp. Heat Index Dew Point Humidity Pressure Visibility Wind Dir Wind Speed Gust Speed Precip Events Conditions
12:56 AM 68.0 °F - 64.0 °F 87% 30.11 in - SE 4.6 mph - N/A   Unknown
1:56 AM 66.9 °F - 63.0 °F 87% 30.11 in - ESE 4.6 mph - N/A   Unknown
2:56 AM 66.0 °F - 63.0 °F 90% 30.10 in - SE 5.8 mph - N/A   Unknown
3:56 AM 66.0 °F - 63.0 °F 90% 30.10 in - ESE 6.9 mph - N/A   Unknown
4:56 AM 66.0 °F - 63.0 °F 90% 30.10 in - SE 6.9 mph - N/A   Unknown
5:56 AM 64.9 °F - 62.1 °F 90% 30.11 in - SE 8.1 mph - N/A   Unknown
6:56 AM 64.9 °F - 62.1 °F 90% 30.11 in - ESE 8.1 mph - N/A   Unknown
7:56 AM 66.0 °F - 62.1 °F 87% 30.13 in - ESE 4.6 mph - N/A   Unknown
8:56 AM 66.0 °F - 63.0 °F 90% 30.14 in - SSE 4.6 mph - N/A   Unknown
9:56 AM 68.0 °F - 63.0 °F 84% 30.14 in - SE 6.9 mph - N/A   Unknown
10:56 AM 68.0 °F - 63.0 °F 84% 30.14 in - SE 5.8 mph - N/A   Unknown
11:56 AM 72.0 °F - 63.0 °F 73% 30.13 in - SE 5.8 mph - N/A   Unknown
12:56 PM 75.0 °F - 63.0 °F 66% 30.10 in - Variable 5.8 mph - N/A   Unknown
1:56 PM 77.0 °F - 63.0 °F 62% 30.09 in - SSE 9.2 mph 17.3 mph N/A   Unknown
2:56 PM 77.0 °F - 62.1 °F 60% 30.07 in - SE 8.1 mph - N/A   Unknown
3:56 PM 80.1 °F 81.5 °F 63.0 °F 56% 30.05 in - SE 10.4 mph - N/A   Unknown
4:56 PM 78.1 °F - 62.1 °F 58% 30.05 in - SE 10.4 mph - N/A   Unknown
5:56 PM 78.1 °F - 62.1 °F 58% 30.04 in - SE 9.2 mph - N/A   Unknown
6:56 PM 77.0 °F - 62.1 °F 60% 30.02 in - ESE 8.1 mph - N/A   Unknown
7:56 PM 75.0 °F - 62.1 °F 64% 30.04 in - ESE 4.6 mph - N/A   Unknown
8:56 PM 73.0 °F - 62.1 °F 68% 30.04 in - ESE 6.9 mph - N/A   Unknown
9:56 PM 72.0 °F - 62.1 °F 71% 30.06 in - ESE 5.8 mph - N/A   Unknown
10:56 PM 71.1 °F - 60.1 °F 68% 30.08 in - SE 9.2 mph - N/A   Unknown
11:56 PM 69.1 °F - 59.0 °F 70% 30.09 in - SE 5.8 mph - N/A   Unknown